Location: DARK SKY Beskydy - Park tmavé oblohy, www.darkskybeskydy.cz
(49.4926°N, 18.5016°E)
Time: 15:51:14
(UTC+02:00)

Transit 4A - Pass Details

Date: 28 February 2024
Orbit: 867 x 976 km, 66.8° (Epoch: 08 September)

Event Time Altitude Azimuth Distance (km) Brightness Sun altitude
Exits shadow 03:38:29 18° 333° (NNW) 2,037 9.6 -28.5°
Maximum altitude 03:38:59 19° 339° (NNW) 2,025 9.6 -28.5°
Drops below altitude 10° 03:43:02 10° 23° (NNE) 2,553 10.7 -27.8°
Sets 03:46:20 0° 42° (NE) 3,479 11.8 -27.3°
